Probability
0 0 0 0 0 0 0 0 0 0 0 0 0 0 0 0 0 0 0 0 0 0 0 0 0 1 3 4 6 6 6 5 4 4 3 3 3 2 1 0 0 0 0 0 0 0 0 1 1
0 0 0 0 0 0 0 0 0 0 0 0 0 0 0 0 0 0 0 0 0 0 0 0 1 2 3 4 6 7 6 6 5 4 3 3 3 2 0 0 0 0 0 0 0 0 0 0 1
0 0 0 0 0 0 0 0 0 0 0 0 0 0 0 0 0 0 0 0 0 0 0 1 2 2 2 3 6 7 7 6 6 4 3 3 3 2 1 1 0 0 0 0 0 0 1 0 0
0 0 0 0 0 0 0 0 0 0 0 0 0 0 0 0 0 0 0 0 0 0 0 1 2 2 1 2 5 7 7 6 5 4 3 3 3 3 3 2 1 0 0 0 0 0 0 0 0
0 0 0 0 0 0 0 0 0 0 0 0 0 0 0 0 0 0 1 0 0 0 1 1 3 2 1 2 4 5 6 5 4 3 3 3 3 3 3 3 2 1 1 0 0 0 0 0 0
0 0 0 0 0 0 0 0 0 0 0 0 0 0 0 0 0 0 0 0 0 1 2 3 3 2 1 2 3 3 3 3 3 3 3 3 3 2 3 3 3 3 2 1 0 0 0 0 0
0 0 0 0 0 0 0 0 0 0 0 0 0 0 0 0 0 0 0 0 0 1 4 4 3 1 0 1 1 1 1 1 2 2 2 2 1 1 1 2 2 2 2 2 1 0 0 0 0
0 0 0 0 0 0 0 0 0 0 0 0 0 0 0 0 0 0 1 1 1 2 5 5 3 1 1 0 0 0 0 0 1 1 1 1 0 0 0 1 1 1 1 1 1 0 0 0 0
0 0 0 0 0 0 0 0 0 0 0 0 0 0 0 0 0 1 2 2 2 2 4 5 4 2 1 0 0 0 0 0 0 0 0 0 0 0 0 0 0 0 0 0 0 0 0 0 0
0 0 0 0 0 0 0 0 0 0 0 0 0 0 0 0 0 1 1 1 1 1 2 3 3 1 1 0 0 0 0 0 0 0 0 0 0 0 0 0 0 0 0 0 0 0 0 0 0
0 0 0 0 0 0 0 0 0 0 0 0 0 0 0 0 0 0 0 0 0 0 0 1 1 0 0 0 0 0 0 0 0 0 0 0 0 0 0 0 0 0 0 0 0 0 0 0 0
0 0 0 0 0 0 0 0 0 0 0 0 0 0 0 0 0 0 0 0 0 0 0 0 0 0 0 0 0 0 0 0 0 0 0 0 0 0 0 0 0 0 0 0 0 0 0 0 0
0 0 0 0 0 0 0 0 0 0 0 0 0 0 0 0 0 0 0 0 0 0 0 0 0 0 0 0 0 0 0 0 0 0 0 0 0 0 0 0 0 0 0 0 0 0 0 0 0
0 0 0 0 0 0 0 0 0 0 0 0 0 0 0 0 0 0 0 0 0 0 0 0 0 0 0 0 0 0 0 0 0 0 0 0 0 0 0 0 0 0 0 0 0 0 0 0 0
0 0 0 0 0 0 0 0 0 0 0 0 0 0 0 0 0 0 0 0 0 0 0 0 0 0 0 0 0 0 0 0 0 0 0 0 0 0 0 0 0 0 0 0 0 0 0 0 0
0 0 0 0 0 0 0 0 0 0 0 0 0 0 0 0 0 0 0 0 0 0 0 0 0 0 0 0 0 0 0 0 0 0 0 0 0 0 0 0 0 0 0 0 0 0 0 0 0
0 0 0 0 0 0 0 0 0 0 0 0 0 0 0 0 0 0 0 0 0 0 0 0 0 0 0 0 0 0 0 0 0 0 0 0 0 0 0 0 0 0 0 0 0 0 0 0 0
0 0 0 0 0 0 0 0 0 0 0 0 0 0 0 0 0 0 0 0 0 0 0 0 0 0 0 0 0 0 0 0 0 0 0 0 0 0 0 0 0 0 0 0 0 0 0 0 0
0 0 0 0 0 0 0 0 0 0 0 0 0 0 0 0 0 0 0 0 0 0 0 0 0 0 0 0 0 0 0 0 0 0 0 0 0 0 0 0 0 0 0 0 0 0 0 0 0
0 0 0 0 0 0 0 0 0 0 0 0 0 0 0 0 0 0 0 0 0 0 0 0 0 0 0 0 0 0 0 0 0 0 0 0 0 0 0 0 0 0 0 0 0 0 0 0 0
0 0 0 0 0 0 0 0 0 0 0 0 0 0 0 0 0 0 0 0 0 0 0 0 0 0 0 0 0 0 0 0 0 0 0 0 0 0 0 0 0 0 0 0 0 0 0 0 0
0 0 0 0 0 0 0 0 0 0 0 0 0 0 0 0 0 0 0 0 0 0 0 0 0 0 0 0 0 0 0 0 0 0 0 0 0 0 0 0 0 0 0 0 0 0 0 0 0
0 0 0 0 0 0 0 0 0 0 0 0 0 0 0 0 0 0 0 0 0 0 0 0 0 0 0 0 0 0 0 0 0 0 0 0 0 0 0 0 0 0 0 0 0 0 0 0 0
0 0 0 0 0 0 0 0 0 0 0 0 0 0 0 0 0 0 0 0 0 0 0 0 0 0 0 0 0 0 0 0 0 0 0 0 0 0 0 0 0 0 0 0 0 0 0 0 0
0 0 0 0 0 0 0 0 0 0 0 0 0 0 0 0 0 0 0 0 0 0 0 0 0 0 0 0 0 0 0 0 0 0 0 0 0 0 0 0 0 0 0 0 0 0 0 0 0
0 0 0 0 0 0 0 0 0 0 0 0 0 0 0 0 0 0 0 0 0 0 0 0 0 0 0 0 0 0 0 0 0 0 0 0 0 0 0 0 0 0 0 0 0 0 0 0 0
0 0 0 0 0 0 0 0 0 0 0 0 0 0 0 0 0 0 0 0 0 0 0 0 0 0 0 0 0 0 0 0 0 0 0 0 0 0 0 0 0 0 0 0 0 0 0 0 0
0 0 0 0 0 0 0 0 0 0 0 0 0 0 0 0 0 0 0 0 0 0 0 0 0 0 0 0 0 0 0 0 0 0 0 0 0 0 0 0 0 0 0 0 0 0 0 0 0
0 0 0 0 0 0 0 0 0 0 0 0 0 0 0 0 0 0 0 0 0 0 0 0 0 0 0 0 0 0 0 0 0 0 0 0 0 0 0 0 0 0 0 0 0 0 0 0 0
0 0 0 0 0 0 0 0 0 0 0 0 0 0 0 0 0 0 0 0 0 0 0 0 0 0 0 0 0 0 0 0 0 0 0 0 0 0 0 0 0 0 0 0 0 0 0 0 0
Wind_Speed
6 3 2 4 5 3 3 4 2 2 2 1 1 2 3 4 4 2 1 2 4 5 6 7 10 11 11 10 10 10 9 9 9 9 9 9 9 9 9 9 9 9 9 9 9 9 9 9 9
2 2 4 5 4 1 5 4 4 3 2 1 1 1 1 1 0 0 0 1 4 6 6 6 9 11 11 10 10 9 9 9 9 9 9 9 9 9 9 9 9 9 9 9 9 9 9 8 8
2 3 4 4 3 5 4 3 4 2 1 1 1 1 1 0 0 1 1 3 4 5 5 5 8 10 11 11 10 9 8 8 8 9 9 9 9 9 9 8 9 9 9 9 9 9 9 8 8
3 4 5 3 4 5 4 2 1 2 1 1 1 0 1 1 1 1 2 4 5 4 4 5 8 9 10 10 10 9 9 8 8 8 9 9 9 9 8 8 8 8 8 9 9 8 8 8 8
4 4 3 1 5 4 4 3 1 1 1 0 2 1 1 2 2 3 4 5 5 4 3 4 6 7 9 9 10 9 8 8 7 8 8 8 8 8 8 7 7 7 8 8 8 8 7 7 8
4 4 3 4 5 4 3 2 1 2 1 0 2 2 2 1 2 2 4 4 4 4 4 4 6 7 7 8 8 8 8 8 7 7 7 8 8 8 7 7 7 7 7 8 7 7 7 7 7
4 4 4 4 4 4 3 1 2 2 2 2 2 2 2 1 1 2 3 4 4 4 4 3 3 4 6 6 6 7 7 7 6 7 7 6 6 7 6 6 6 6 7 7 7 7 6 6 7
4 4 2 3 4 5 2 1 0 1 2 1 2 3 3 1 2 4 4 4 4 3 3 3 3 3 3 4 6 6 6 6 6 7 7 6 6 6 6 5 5 6 6 6 6 6 6 6 6
3 3 4 5 5 4 1 1 2 1 0 1 0 1 1 3 4 5 4 3 3 2 2 2 2 3 3 3 4 5 6 6 6 6 7 6 4 4 4 4 5 5 5 6 6 5 6 5 5
3 4 6 3 3 2 1 1 1 1 1 1 1 2 3 4 4 4 3 3 2 2 1 1 2 2 3 2 3 3 3 4 3 3 4 3 3 3 3 4 4 4 4 4 5 5 5 4 3
3 5 3 2 1 1 1 1 1 1 3 4 3 1 2 3 3 2 2 2 2 2 1 0 1 2 3 2 2 2 2 2 3 3 3 3 3 2 2 2 2 2 3 3 3 3 2 2 1
2 3 2 2 0 0 1 1 1 2 5 2 1 2 2 2 3 3 3 2 1 0 0 0 1 1 2 2 2 2 2 2 2 3 3 3 2 2 2 2 1 1 1 2 2 1 2 2 1
2 2 1 2 1 1 1 2 2 4 5 2 1 2 2 2 2 2 1 1 0 0 1 0 1 1 1 2 2 2 2 2 2 2 2 3 2 2 2 1 1 1 1 1 1 1 1 1 1
2 2 3 3 2 1 1 3 1 7 1 1 1 0 1 2 2 1 1 1 1 2 2 1 1 1 1 2 2 2 2 2 3 2 3 3 2 2 2 2 2 1 1 1 1 1 1 0 1
0 1 4 3 2 1 1 6 5 5 0 1 2 2 2 2 1 2 2 2 3 2 2 1 2 1 1 2 2 2 2 3 3 2 3 3 3 3 2 2 1 1 1 1 1 1 1 0 0
1 1 3 3 1 0 2 8 5 2 1 3 4 3 3 3 2 2 2 2 2 2 1 2 1 2 2 2 2 2 3 3 3 2 2 3 3 3 2 2 1 1 2 2 1 1 1 0 0
1 2 3 4 1 1 2 7 5 2 1 4 4 4 3 4 4 3 3 2 2 2 2 2 1 2 2 2 2 2 2 2 2 2 2 2 3 3 3 2 2 2 2 1 1 1 1 1 0
4 4 3 4 2 1 2 8 9 4 2 4 4 4 4 4 5 4 3 2 1 1 1 1 1 0 1 1 1 2 2 1 1 2 2 2 2 3 3 2 2 2 2 1 1 1 1 1 1
2 3 4 4 2 1 5 9 11 6 3 4 4 4 5 5 5 3 3 2 2 1 1 0 1 0 2 1 1 1 1 1 1 1 2 2 2 2 2 2 2 2 2 2 2 2 1 1 1
2 2 4 4 2 2 4 9 8 5 4 4 4 5 5 4 4 4 3 3 2 1 1 0 1 1 2 1 1 1 1 1 1 1 1 1 1 2 2 2 2 2 2 2 2 2 2 1 1
4 5 5 4 4 2 3 7 4 3 2 2 2 3 3 3 4 4 3 3 2 2 1 1 1 1 1 1 2 2 2 2 1 1 1 0 1 2 2 2 2 2 3 3 3 3 3 2 1
5 4 4 2 1 3 1 6 6 3 4 3 3 3 3 4 3 3 2 3 2 2 1 1 0 1 1 2 2 2 2 1 1 1 1 1 1 1 1 2 2 2 2 3 3 3 2 3 2
4 1 2 2 2 3 1 4 9 2 4 4 3 3 3 3 3 3 3 2 2 2 2 1 1 2 1 1 2 2 1 0 1 1 1 1 0 1 1 1 1 2 2 3 3 3 3 3 3
3 3 3 3 2 4 4 5 8 3 4 3 2 2 3 4 3 3 3 3 3 3 3 2 2 2 1 1 1 1 1 1 1 1 1 0 0 0 0 0 1 1 1 2 3 3 3 3 3
3 4 2 4 2 6 2 4 9 5 3 3 4 3 3 3 3 3 4 4 3 4 3 3 2 2 2 1 1 1 1 2 2 1 1 1 0 0 1 1 1 1 1 2 2 2 3 3 4
4 5 6 5 5 5 2 7 7 3 2 1 1 1 2 2 2 3 3 2 3 3 3 3 2 2 2 1 0 0 1 1 0 0 1 1 1 1 1 1 1 1 1 2 2 2 2 2 3
4 4 3 3 0 3 6 6 7 2 1 1 1 2 2 2 2 2 3 3 3 3 3 3 2 3 2 2 1 1 1 0 0 0 0 0 1 0 0 1 1 1 1 2 2 2 2 2 3
2 4 3 4 3 5 6 6 5 4 4 2 1 2 2 2 2 3 3 3 3 2 2 3 3 2 2 2 2 1 1 1 1 0 0 0 1 0 0 1 1 1 1 1 2 2 2 2 2
3 3 3 3 3 4 5 7 4 5 3 3 3 2 2 1 2 2 2 3 3 3 3 3 3 3 3 3 2 2 2 1 1 1 1 1 1 0 1 1 1 1 1 1 1 2 1 2 2
4 5 5 5 5 4 4 8 2 2 1 1 2 2 1 1 2 2 2 2 3 3 3 3 3 3 3 3 2 2 2 2 2 2 2 1 1 1 1 1 1 1 1 1 1 2 2 2 2
Wind_Direction
350 1 52 56 57 53 242 244 230 251 235 237 172 155 160 162 172 218 332 141 135 147 162 171 164 156 150 146 142 140 139 134 132 127 123 118 113 110 108 107 106 104 102 99 97 93 91 89 86
341 12 51 63 98 198 256 242 231 232 224 101 57 84 98 241 8 336 335 186 146 150 156 163 162 156 152 150 148 144 143 138 135 131 127 123 119 114 109 108 106 105 103 101 98 94 93 88 88
3 43 81 85 147 197 233 235 229 271 272 102 76 55 132 236 325 238 237 153 135 143 147 153 157 157 154 154 153 147 145 143 140 136 131 127 123 118 112 110 108 106 105 103 99 96 94 90 89
66 49 59 92 223 226 232 260 256 319 354 60 125 48 320 347 280 235 124 130 129 134 139 151 154 159 156 155 154 152 150 145 143 140 136 130 125 120 113 111 108 107 108 104 100 95 95 92 90
59 80 81 240 245 249 250 268 243 234 266 315 135 179 273 345 30 100 121 130 134 133 133 143 150 155 153 153 155 152 149 144 142 140 138 134 129 124 119 117 113 110 107 103 100 95 95 95 92
66 79 132 226 246 262 264 255 218 223 228 237 144 168 249 14 80 108 123 125 128 132 130 136 142 141 142 144 148 152 152 147 144 143 139 136 131 128 124 122 120 115 109 105 102 97 95 94 92
116 125 190 213 245 266 258 234 191 205 217 232 177 169 269 315 96 109 107 106 105 107 111 115 127 134 136 135 134 138 141 140 140 138 129 123 120 121 118 121 120 118 114 110 105 100 97 97 92
124 121 187 215 222 248 270 300 261 188 231 286 139 174 240 256 116 105 96 90 91 89 95 100 99 104 116 130 130 124 128 128 125 120 115 111 111 110 106 110 118 120 116 110 105 101 95 93 91
100 110 214 216 208 240 285 325 328 340 81 1 20 214 301 102 112 110 100 91 94 96 86 99 103 103 107 116 124 124 124 122 116 111 108 102 97 98 99 101 111 115 114 111 107 102 92 83 79
111 187 222 214 201 225 273 238 290 2 355 315 327 359 50 90 116 132 142 156 166 176 168 129 132 123 118 122 119 117 117 115 105 103 107 104 101 97 95 96 98 104 107 105 103 96 85 76 62
165 206 221 248 239 244 271 300 337 176 255 239 227 226 103 107 118 149 170 176 199 198 185 179 162 144 135 129 125 119 117 114 113 113 111 109 102 96 85 81 74 75 81 75 77 71 66 69 69
192 239 218 255 257 260 241 265 321 214 239 265 221 137 125 147 181 199 200 204 166 104 249 9 89 135 145 135 137 130 131 126 124 124 121 118 110 103 103 96 84 73 82 91 82 83 74 69 64
218 263 267 272 285 230 212 240 253 265 265 313 38 75 137 183 218 226 206 201 169 230 258 270 80 126 158 148 148 139 144 143 137 130 131 130 134 137 128 123 113 100 95 107 112 109 100 81 59
235 263 283 277 264 250 205 276 252 269 281 18 44 251 229 216 230 250 274 254 242 245 252 235 185 186 160 171 163 158 153 148 139 141 144 139 136 141 144 143 135 126 128 134 137 138 123 102 88
351 318 311 271 232 236 72 304 245 264 12 313 291 276 270 265 258 247 248 247 244 250 252 234 206 195 181 185 179 161 159 151 151 157 156 148 139 146 146 148 150 150 142 141 120 102 93 87 77
46 35 292 285 197 226 136 266 282 318 177 274 282 282 278 281 268 270 274 265 266 267 251 234 209 201 198 188 182 168 159 159 159 154 154 154 148 149 146 153 164 153 143 144 142 143 128 167 181
25 248 253 299 317 103 169 259 286 327 290 281 288 289 288 299 309 301 284 264 259 251 244 221 222 204 200 188 160 144 147 156 157 148 150 159 157 155 154 165 169 149 138 145 162 160 158 181 239
224 223 248 262 304 93 238 263 285 291 255 267 286 295 294 293 293 312 313 300 282 270 254 216 218 250 150 129 112 111 115 131 139 151 157 159 160 157 156 162 161 149 146 155 162 171 145 158 168
186 200 254 264 288 256 249 268 281 287 284 275 281 285 284 281 295 329 338 342 6 9 6 103 152 123 128 122 135 147 165 162 154 147 144 164 161 156 155 157 157 160 170 181 174 163 153 143 123
204 244 271 293 311 241 278 281 277 274 260 254 261 272 279 296 322 338 350 7 11 0 338 291 188 181 173 165 154 155 145 148 146 113 113 143 169 161 166 167 172 174 172 176 178 162 163 161 156
220 216 237 263 330 336 322 302 283 287 296 302 291 281 297 300 305 320 339 347 357 351 316 273 236 163 163 108 103 81 80 70 76 83 121 138 163 163 171 183 179 179 179 192 197 189 179 186 194
241 225 216 244 313 293 0 293 286 279 306 312 315 326 324 327 319 318 334 350 347 319 321 328 353 91 105 116 125 125 141 160 198 175 158 121 122 129 156 189 189 187 191 196 202 199 195 177 190
222 174 165 197 215 288 255 244 282 297 289 297 308 315 324 338 339 338 340 337 349 350 355 3 43 56 58 111 141 146 126 109 95 104 120 118 119 105 125 184 191 201 207 207 200 197 194 194 193
147 77 62 53 77 266 225 206 274 244 247 276 292 313 329 340 345 351 359 11 10 12 15 22 47 51 53 88 115 147 151 131 118 109 154 156 279 9 26 260 220 226 228 222 215 206 200 207 204
128 111 33 352 340 253 222 216 252 254 244 247 265 293 318 335 348 358 4 7 5 12 14 17 33 32 35 71 101 166 173 159 171 194 203 189 214 269 262 259 260 271 265 249 230 217 211 211 208
182 156 168 204 231 277 254 236 255 256 267 270 258 284 344 356 359 1 356 354 355 5 13 16 22 17 19 32 11 47 73 126 158 222 231 218 219 234 241 229 234 256 268 268 250 238 229 218 218
158 200 177 146 165 275 262 274 293 263 274 312 18 24 359 344 349 355 358 357 356 359 4 9 21 19 15 6 18 36 42 59 48 217 205 256 278 263 278 240 239 259 266 269 264 253 246 230 223
170 151 126 155 189 249 271 258 248 254 252 271 304 312 319 335 346 351 353 348 348 355 1 12 20 21 18 14 11 20 15 1 352 62 87 293 315 342 267 252 250 268 272 271 255 260 257 244 237
146 159 176 173 188 195 251 259 229 220 220 224 256 281 290 308 326 332 335 345 352 2 14 17 15 13 13 11 14 19 11 9 21 17 355 344 348 315 277 251 239 248 259 268 255 257 257 242 248
180 187 167 182 230 216 242 264 282 214 214 211 265 301 301 308 313 312 323 348 3 3 4 9 9 11 1 359 17 26 18 19 25 9 3 11 6 2 355 338 288 288 300 288 258 259 253 241 244